Tracking 31027 objects as of 19-Jul-2025
HD Live streaming from Space Station
objects crossing your sky now

ASTROCAST-0101

Track ASTROCAST-0101 now!
10-day predictions
ASTROCAST-0101 is classified as:


NORAD ID: 47430
Int'l Code: 2021-006T
Perigee: 431.9 km
Apogee: 436.1 km
Inclination: 97.3 °
Period: 93.1 minutes
Semi major axis: 6804 km
RCS: Unknown
Launch date: January 24, 2021
Source: (SWTZ)
Launch site: AIR FORCE EASTERN TEST RANGE (AFETR)

Uplink (MHz):
Downlink (MHz):
Beacon (MHz):
Mode:
Call sign:
Status: Unknown

Your satellite tracking list
FENGYUN 1C DEB
Track 1 satellite(s)




NASA's NSSDC Master Catalog

Two Line Element Set (TLE):
1 47430U 21006T   25199.61266321  .00015994  00000-0  32335-3 0  9997
2 47430  97.2864 256.5329 0003041 256.1962 103.8949 15.46544249247985
Source of the keplerian elements: AFSPC